User: anonymous   Login
Location: Petruro
(41.0333°N, 14.7833°E)
Time: 10:48:34
(UTC+00:00)
Language:

Cosmos 1892 Rocket - Orbit

View from above orbital plane
View from above orbital plane
View from above satellite
View from above satellite

Ground track
Ground track

The orbit data is extracted from the following two-line orbital elements,

1 18422U 87088B   22229.03503826  .00000288  00000-0  32314-4 0  9997
2 18422  82.5108 208.5159 0019124 348.3234  11.7534 14.83233602881467
Epoch (UTC): 17 August 2022 00:50:27
Eccentricity: 0.0019124
inclination: 82.5108°
perigee height: 606 km
apogee height: 632 km
right ascension of ascending node: 208.5159°
argument of perigee: 348.3234°
revolutions per day: 14.83233602
mean anomaly at epoch: 11.7534°
orbit number at epoch: 88146

The dashed part of the orbit path shows where the satellite is in the earth's shadow,  

DLR